Tracking 35237 objects as of 5-Sep-2026
HD Live streaming from Space Station
objects crossing your sky now

SL-6 R/B(2)

Track SL-6 R/B(2) now!


NORAD ID: 7629
Int'l Code: 1975-007D
Launch date: January 30, 1975
Source: Commonwealth of Independent States (former USSR) (CIS)
Launch site: PLESETSK MISSILE AND SPACE COMPLEX (PKMTR)

Note: This is a ROCKET BODY
Your satellite tracking list
Your tracking list is empty




NASA's NSSDC Master Catalog

Two Line Element Set (TLE):
1 07629U 75007D   26245.70815256 -.00000149  00000-0  00000-0 0  9991
2 07629  68.9432 228.2656 5189038 299.5882 305.9558  2.00861658239551
Source of the keplerian elements: AFSPC